Location: Unspecified
(42.9300°N, 71.1866°W)
Time: 12:31:32
(UTC-04:00)

Cosmos 1674 - Visible Passes

Search period start: 28 May 2017 00:00
Search period end: 07 June 2017 00:00
Orbit: 499 x 522 km, 82.5° (Epoch: 27 May)

Date Brightness Start Highest point End Pass type
(mag) Time Alt. Az. Time Alt. Az. Time Alt. Az.
28 May 3.4 01:15:42 52° NE 01:15:42 52° NE 01:18:47 10° NNE visible
29 May 3.7 00:59:14 42° NE 00:59:14 42° NE 01:02:10 10° NNE visible
29 May 5.2 02:34:08 12° WNW 02:34:22 12° WNW 02:35:46 10° NW visible
30 May 4.0 00:42:46 34° ENE 00:42:46 34° ENE 00:45:32 10° NNE visible
30 May 5.0 02:17:40 14° WNW 02:17:43 14° WNW 02:19:54 10° NW visible
31 May 4.3 00:26:17 28° ENE 00:26:17 28° ENE 00:28:50 10° NNE visible
31 May 4.8 02:01:11 18° WNW 02:01:11 18° WNW 02:03:46 10° NNW visible
01 Jun 4.5 00:09:47 23° ENE 00:09:47 23° ENE 00:12:05 10° NE visible
01 Jun 4.5 01:44:41 22° WNW 01:44:41 22° WNW 01:47:31 10° NNW visible
01 Jun 4.8 23:53:16 19° ENE 23:53:16 19° ENE 23:55:15 10° NE visible
02 Jun 4.3 01:28:10 27° WNW 01:28:10 27° WNW 01:31:11 10° NNW visible
02 Jun 5.0 23:36:45 15° ENE 23:36:45 15° ENE 23:38:20 10° NE visible
03 Jun 4.0 01:11:39 33° WNW 01:11:39 33° WNW 01:14:47 10° N visible
03 Jun 5.2 23:20:12 12° ENE 23:20:12 12° ENE 23:21:11 10° ENE visible
04 Jun 3.7 00:55:06 41° WNW 00:55:06 41° WNW 00:58:20 10° N visible
05 Jun 3.3 00:38:33 51° NW 00:38:33 51° NW 00:41:51 10° N visible
06 Jun 3.1 00:21:59 62° NNW 00:21:59 62° NNW 00:25:20 10° N visible
